FW5467 Weather Reports


time (UTC)temp
F
wind
direction
speed
knots
gust
knots
rain 1hr
in
rain 24hr
in
rain mn
in
humidity
%
barometer
mb
20260504120126 53 245 0.0 0.0 0.00 0.00 0.00 57 1013.7
20260504110546 40 175 0.0 0.0 0.00 0.00 0.00 80 1012.5
20260504100421 36 176 0.0 0.0 0.00 0.00 0.00 81 1012.1
20260504081601 34 178 0.0 0.0 0.00 0.00 0.00 84 1011.5
20260504081030 34 179 0.0 0.0 0.00 0.00 0.00 84 1011.6
20260504080457 35 179 0.0 0.0 0.00 0.00 0.00 84 1011.6
20260504070406 34 178 0.0 0.0 0.00 0.00 0.00 86 1011.5
20260504050338 36 266 0.0 0.0 0.00 0.00 0.00 79 1011.6
20260504045837 36 266 0.0 0.0 0.00 0.00 0.00 80 1011.5
20260504045337 36 266 0.0 0.0 0.00 0.00 0.00 79 1011.4
20260504044805 36 266 0.0 0.0 0.00 0.00 0.00 80 1011.4
20260504044233 36 266 0.0 0.0 0.00 0.00 0.00 80 1011.4
20260504043702 36 266 0.0 0.0 0.00 0.00 0.00 81 1011.4
20260504043203 36 266 0.0 0.0 0.00 0.00 0.00 80 1011.5
20260504042937 36 266 0.0 0.0 0.00 0.00 0.00 80 1011.4
20260504042702 36 266 0.0 0.0 0.00 0.00 0.00 81 1011.5
20260504041702 37 266 0.0 0.0 0.00 0.00 0.00 80 1011.5
20260504041130 37 266 0.0 0.0 0.00 0.00 0.00 80 1011.5
20260504040557 37 266 0.0 0.0 0.00 0.00 0.00 79 1011.5
20260504040025 37 266 0.0 0.0 0.00 0.00 0.00 78 1011.5
20260504035419 37 266 0.0 0.0 0.00 0.00 0.00 78 1011.4
20260504035150 38 266 0.0 0.0 0.00 0.00 0.00 78 1011.4
20260504034348 38 266 0.0 0.0 0.00 0.00 0.00 78 1011.4
20260504034048 38 266 0.0 0.0 0.00 0.00 0.00 77 1011.6
20260504033245 38 266 0.0 0.0 0.00 0.00 0.00 77 1011.7
20260504032713 39 266 0.0 0.0 0.00 0.00 0.00 76 1011.7
20260504032142 39 266 0.0 0.0 0.00 0.00 0.00 75 1011.7
20260504031611 40 266 0.0 0.0 0.00 0.00 0.00 75 1011.7
20260504031039 40 266 0.0 0.0 0.00 0.00 0.00 75 1011.7
20260504030506 41 266 0.0 0.0 0.00 0.00 0.00 75 1011.6
20260504025936 41 266 0.0 0.0 0.00 0.00 0.00 75 1011.7
20260504025404 41 266 0.0 0.0 0.00 0.00 0.00 76 1011.8
20260504025029 41 266 0.0 0.0 0.00 0.00 0.00 75 1011.6
20260504024227 41 266 0.0 0.0 0.00 0.00 0.00 74 1011.6
20260504023727 40 266 0.0 0.0 0.00 0.00 0.00 72 1011.6
20260504023155 40 266 0.0 0.0 0.00 0.00 0.00 72 1011.7
20260504022623 41 266 0.0 0.0 0.00 0.00 0.00 72 1011.6
20260504022050 41 266 0.0 0.0 0.00 0.00 0.00 69 1011.6
20260504021517 41 266 0.0 0.0 0.00 0.00 0.00 69 1011.6
20260504020913 41 266 0.0 0.0 0.00 0.00 0.00 68 1011.6
20260504020413 41 266 0.0 0.0 0.00 0.00 0.00 68 1011.8
20260504020112 41 266 0.0 0.0 0.00 0.00 0.00 68 1011.7
20260504015813 41 266 0.0 0.0 0.00 0.00 0.00 68 1011.7
20260504014812 41 266 0.0 0.0 0.00 0.00 0.00 67 1011.7
20260504014240 41 266 0.0 0.0 0.00 0.00 0.00 67 1011.6
20260504013740 41 266 0.0 0.0 0.00 0.00 0.00 67 1011.6
20260504013209 42 266 0.0 0.0 0.00 0.00 0.00 66 1011.5
20260504012637 42 266 0.0 0.0 0.00 0.00 0.00 66 1011.5
20260504012106 42 266 0.0 0.0 0.00 0.00 0.00 66 1011.6
20260504011534 42 266 0.0 0.0 0.00 0.00 0.00 65 1011.7
20260504011000 43 266 0.0 0.0 0.00 0.00 0.00 64 1011.6
20260504010700 43 266 0.0 0.0 0.00 0.00 0.00 64 1011.5
20260504010128 44 266 0.0 0.0 0.00 0.00 0.00 64 1011.5
20260504005325 44 266 0.0 0.0 0.00 0.00 0.00 62 1011.4
20260504004754 44 266 0.0 0.0 0.00 0.00 0.00 61 1011.5
20260504004223 45 266 0.0 0.0 0.00 0.00 0.00 59 1011.6
20260504003651 45 266 0.0 0.0 0.00 0.00 0.00 58 1011.5
20260504003119 46 266 0.0 0.0 0.00 0.00 0.00 57 1011.6
20260504002546 46 266 0.0 0.0 0.00 0.00 0.00 56 1011.5
20260504002013 47 266 0.0 0.0 0.00 0.00 0.00 56 1011.5
20260504001441 48 266 0.0 0.0 0.00 0.00 0.00 55 1011.5
20260504000910 48 266 0.0 0.0 0.00 0.00 0.00 56 1011.5
20260504000610 49 266 0.0 0.0 0.00 0.00 0.00 53 1011.5
20260503235839 49 266 0.0 0.0 0.00 0.00 0.00 51 1011.5
20260503235309 49 266 0.0 0.0 0.00 0.00 0.00 51 1011.6
20260503234739 50 266 0.0 0.0 0.00 0.00 0.00 52 1011.5
20260503234239 50 266 0.0 0.0 0.00 0.00 0.00 50 1011.5
20260503233739 50 266 0.0 0.0 0.00 0.00 0.00 49 1011.5
20260503233239 51 257 0.0 6.1 0.00 0.00 0.00 49 1011.6
20260503232739 51 257 0.0 6.1 0.00 0.00 0.00 48 1011.5
20260503232207 51 278 0.0 0.9 0.00 0.00 0.00 47 1011.6
20260503231637 52 245 0.9 6.1 0.00 0.00 0.00 47 1011.6
20260503231105 52 274 0.9 4.3 0.00 0.00 0.00 46 1011.6
20260503230531 52 263 0.9 5.2 0.00 0.00 0.00 45 1011.6
20260503225958 53 242 0.9 5.2 0.00 0.00 0.00 45 1011.6
20260503225458 53 282 2.6 11.3 0.00 0.00 0.00 45 1011.6
20260503224926 53 231 2.6 11.3 0.00 0.00 0.00 44 1011.6
20260503224354 53 224 0.9 7.8 0.00 0.00 0.00 44 1011.6
20260503223822 53 258 0.9 7.8 0.00 0.00 0.00 43 1011.6
20260503223521 53 249 0.9 7.8 0.00 0.00 0.00 42 1011.6
20260503222953 53 277 0.9 7.8 0.00 0.00 0.00 42 1011.4
20260503222149 54 247 0.9 7.8 0.00 0.00 0.00 41 1011.4
20260503221848 54 265 2.6 10.4 0.00 0.00 0.00 40 1011.4
20260503221045 54 263 2.6 10.4 0.00 0.00 0.00 41 1011.4
20260503220546 54 265 1.7 11.3 0.00 0.00 0.00 41 1011.4
20260503220012 55 246 0.9 11.3 0.00 0.00 0.00 39 1011.4
20260503215712 55 226 0.9 4.3 0.00 0.00 0.00 39 1011.3
20260503215140 55 272 2.6 12.2 0.00 0.00 0.00 39 1011.4
20260503214641 55 233 2.6 12.2 0.00 0.00 0.00 39 1011.4
20260503213839 55 260 1.7 7.8 0.00 0.00 0.00 39 1011.4
20260503213308 54 251 0.9 4.3 0.00 0.00 0.00 41 1011.3
20260503213039 54 125 0.9 7.8 0.00 0.00 0.00 41 1011.3
20260503212307 54 244 1.7 7.8 0.00 0.00 0.00 38 1011.2
20260503211807 55 217 1.7 9.6 0.00 0.00 0.00 38 1011.2
20260503211306 55 142 0.9 9.6 0.00 0.00 0.00 39 1011.2
20260503210807 55 182 0.9 7.0 0.00 0.00 0.00 39 1011.2
20260503210538 56 158 2.6 11.3 0.00 0.00 0.00 38 1011.2
20260503205735 56 236 2.6 11.3 0.00 0.00 0.00 36 1011.1
20260503205236 56 251 1.7 8.7 0.00 0.00 0.00 35 1011.2
20260503205006 56 205 1.7 8.7 0.00 0.00 0.00 36 1011.1
20260503204204 56 298 2.6 9.6 0.00 0.00 0.00 35 1011.1
20260503203703 56 276 3.5 9.6 0.00 0.00 0.00 35 1011.1
20260503203203 56 211 2.6 9.6 0.00 0.00 0.00 35 1011.1
20260503202703 56 242 1.7 8.7 0.00 0.00 0.00 35 1011.2
20260503202132 56 274 3.5 10.4 0.00 0.00 0.00 36 1011.2
20260503201828 56 227 5.2 12.2 0.00 0.00 0.00 35 1011.1
20260503201026 56 199 4.3 12.2 0.00 0.00 0.00 34 1011.4
20260503200755 56 281 3.5 11.3 0.00 0.00 0.00 35 1011.3
20260503195953 56 228 3.5 9.6 0.00 0.00 0.00 34 1011.2
20260503195452 56 216 3.5 11.3 0.00 0.00 0.00 36 1011.4
20260503195223 56 284 3.5 11.3 0.00 0.00 0.00 35 1011.4
20260503194420 56 274 4.3 15.6 0.00 0.00 0.00 36 1011.5
20260503193849 56 247 4.3 15.6 0.00 0.00 0.00 36 1011.5
20260503193316 56 259 3.5 13.9 0.00 0.00 0.00 34 1011.6
20260503192745 56 255 3.5 13.9 0.00 0.00 0.00 35 1011.6
20260503192214 56 222 2.6 9.6 0.00 0.00 0.00 35 1011.6
20260503191642 56 234 3.5 12.2 0.00 0.00 0.00 38 1011.7
20260503191341 56 262 2.6 9.6 0.00 0.00 0.00 35 1011.7
20260503190808 56 170 1.7 5.2 0.00 0.00 0.00 38 1011.8
20260503190004 55 255 3.5 11.3 0.00 0.00 0.00 37 1011.8
20260503185703 55 239 4.3 11.3 0.00 0.00 0.00 36 1011.7
20260503184900 55 239 5.2 13.0 0.00 0.00 0.00 36 1011.6
20260503184328 55 259 2.6 13.0 0.00 0.00 0.00 36 1011.9
20260503183756 55 328 1.7 8.7 0.00 0.00 0.00 39 1011.9
20260503183225 54 186 1.7 9.6 0.00 0.00 0.00 40 1011.8
20260503182653 53 266 2.6 13.9 0.00 0.00 0.00 38 1011.9
20260503182122 54 224 2.6 13.9 0.00 0.00 0.00 37 1012.1
20260503181549 54 191 2.6 14.8 0.00 0.00 0.00 38 1012.2
20260503181016 54 237 4.3 14.8 0.00 0.00 0.00 39 1012.3
20260503180445 54 274 4.3 13.0 0.00 0.00 0.00 38 1012.1
20260503175945 54 255 2.6 13.0 0.00 0.00 0.00 38 1012.1
20260503175413 53 290 1.7 14.8 0.00 0.00 0.00 39 1012.2
20260503174913 53 248 2.6 14.8 0.00 0.00 0.00 39 1012.3
20260503174413 54 236 1.7 13.0 0.00 0.00 0.00 40 1012.3
20260503173913 53 257 0.9 13.0 0.00 0.00 0.00 41 1012.3
20260503173343 52 82 1.7 8.7 0.00 0.00 0.00 42 1012.2
20260503172811 51 289 1.7 8.7 0.00 0.00 0.00 41 1011.9
20260503172542 51 237 2.6 13.0 0.00 0.00 0.00 43 1012.1
20260503171740 51 133 3.5 13.0 0.00 0.00 0.00 42 1012.1
20260503171207 52 154 3.5 11.3 0.00 0.00 0.00 39 1012.4
20260503170907 53 297 4.3 11.3 0.00 0.00 0.00 39 1012.4
20260503170334 52 301 4.3 11.3 0.00 0.00 0.00 40 1012.4
20260503150932 45 280 3.5 12.2 0.00 0.00 0.00 55 1012.3
20260503150200 44 260 1.7 12.2 0.00 0.00 0.00 51 1012.3
20260503130934 43 286 0.9 4.3 0.00 0.00 0.00 58 1012.7
20260503130401 43 248 0.9 10.4 0.00 0.00 0.00 59 1012.7